Preview of NWS' New Version of Forecast
This preview is not operational and should not be used for support decisions.

Regional Weather Roundup (RWR)

Issued by National Weather Service (NWS)

                            
000
NZUS99 KTBW 211019
RWRTPA
FLORIDA REGIONAL WEATHER ROUNDUP
NATIONAL WEATHER SERVICE TAMPA BAY RUSKIN FL
500 AM EST MON JAN 21 2019

NOTE: "FAIR" INDICATES FEW OR NO CLOUDS BELOW 12,000 FEET WITH NO
SIGNIFICANT WEATHER AND/OR OBSTRUCTIONS TO VISIBILITY.


  
STATION/POSITION



FLZ042-048>051-055-056-060-061-211100-
EXTRA STATIONS
  
CITY           SKY/WX    TMP DP  RH WIND       PRES   REMARKS
Everglades Cty NOT AVBL                                               
CRYSTAL RIVER  FAIR      37  32  81 NW3       30.26R                  
SEBRING        FAIR      40  34  81 N8        30.22S WCI  34          
EGLIN AFB      FAIR      28  25  88 CALM      30.30F                  
CANAVERAL      FAIR      41  34  76 NW12      30.19S WCI  34          

$$
FLZ001>010-012>015-211100-
PANHANDLE FLORIDA
  
CITY           SKY/WX    TMP DP  RH WIND       PRES   REMARKS
PENSACOLA      FAIR      34  25  69 N8        30.32S WCI  27          
PENSACOLA NAS  FAIR      33  26  75 N6        30.33R WCI  28          
CRESTVIEW      FAIR      30  25  81 N5        30.32F WCI  25          
VALPARAISO     FAIR      29  24  84 N5        30.31S WCI  24          
MARY ESTHER    FAIR      29  25  86 N6        30.31R WCI  23          
PANAMA CITY    FAIR      31  27  85 CALM      30.30R                  
TYNDALL AFB    FAIR      35  26  69 N8        30.30S WCI  28          
APALACHICOLA   FAIR      34  23  64 N3        30.29R                  

STATION/POSITION


29.2N   88.2W

$$
FLZ011-016>039-211100-
NORTH FLORIDA
  
CITY           SKY/WX    TMP DP  RH WIND       PRES   REMARKS
MARIANNA       FAIR      31  25  78 N3        30.29R                  
TALLAHASSEE    FAIR      33  26  75 NW6       30.28R WCI  28          
PERRY          FAIR      33  29  87 N3        30.27S                  
CROSS CITY     FAIR      31  30  94 NW3       30.25S                  
GAINESVILLE    FAIR      36  31  82 NW3       30.26R                  
MAYPORT NAS    FAIR      38  31  76 NW9       30.22S WCI  31          
JACKSONVILLE   FAIR      34  28  79 NW3       30.22F                  
JAX NAS        FAIR      38  31  76 NW9       30.23S WCI  31          
JAX CRAIG      FAIR      37  27  67 N14       30.22S WCI  28          
ST AUGUSTINE   FAIR      37  30  75 NW6       30.24R WCI  32          

STATION/POSITION


KEATON BEACH
31.4N   80.9W
ST AUGUSTINE

$$
FLZ040-043>046-052-053-057-058-063-211100-
CENTRAL FLORIDA
  
CITY           SKY/WX    TMP DP  RH WIND       PRES   REMARKS
OCALA            N/A     34  31  88 CALM      30.25R                  
LEESBURG       FAIR      37  33  85 NW6       30.25R WCI  32          
SANFORD        FAIR      36  33  89 NW7       30.22S WCI  30          
ORLANDO EXEC   FAIR      40  33  76 NW10      30.22S WCI  33          
ORLANDO INTL   FAIR      41  32  70 NW9       30.22S WCI  35          
KISSIMMEE      FAIR      40  35  83 NW5       30.24R WCI  37          
WINTER HAVEN   FAIR      41  34  76 NW10      30.23S WCI  35          
BARTOW         FAIR      37  32  81 NW5       30.22S WCI  34          

$$
FLZ041-047-054-059-064-211100-
EAST CENTRAL FLORIDA
  
CITY           SKY/WX    TMP DP  RH WIND       PRES   REMARKS
DAYTONA BEACH  FAIR      37  34  89 NW6       30.22R WCI  32          
JFK SPACE CTR  FAIR      39  34  82 NW8       30.20S WCI  34          
PATRICK AFB    FAIR      42  37  81 NW16      30.20S WCI  35          
MELBOURNE      FAIR      38  32  79 NW7       30.21R WCI  33          
VERO BEACH     FAIR      40  34  79 NW12      30.21R WCI  33          
FT PIERCE      FAIR      40  34  79 NW8       30.20S WCI  34          
STUART         FAIR      43  34  70 NW8       30.21S WCI  38          

STATION/POSITION


28.9N   78.5W

$$
FLZ042-048>051-055-056-060-061-211100-
WEST CENTRAL FLORIDA
  
CITY           SKY/WX    TMP DP  RH WIND       PRES   REMARKS
BROOKSVILLE    FAIR      36  30  79 N6        30.25R WCI  31          
TAMPA          FAIR      43  34  70 VRB7      30.24S WCI  39          
MACDILL AFB    FAIR      41  34  78 N8        30.22S WCI  35          
ST PETERSBURG  FAIR      44  38  79 NE12      30.23R WCI  38          
ST PET-WHITTED FAIR      47  40  76 NE15      30.21S WCI  41          
SARASOTA       FAIR      43  38  82 NE7       30.20F WCI  39          

STATION/POSITION


CEDAR KEY
VENICE

$$
FLZ062-065-066-069-070-075>078-211100-
SOUTHWEST FLORIDA AND KEYS
  
CITY           SKY/WX    TMP DP  RH WIND       PRES   REMARKS
PUNTA GORDA    FAIR      41  36  82 NE6       30.23S WCI  37          
FT MYERS       FAIR      44  39  82 NE9       30.21S WCI  39          
SOUTHWEST INTL FAIR      44  39  82 N7        30.22R WCI  40          
NAPLES         FAIR      47  42  83 N5        30.20F WCI  45          
MARATHON       MOCLDY    58  49  72 N13       30.18R                  
KEY WEST NAS   FAIR      61  49  64 N20       30.18R                  
KEY WEST INTL  FAIR      61  50  67 N14       30.18R                  

STATION/POSITION


VENICE
26.0N   85.6W
SAND KEY
SOMBRERO KEY
LONG KEY
MOLASSES REEF

$$
FLZ067-068-071>074-211100-
SOUTHEAST FLORIDA 
  
CITY           SKY/WX    TMP DP  RH WIND       PRES   REMARKS
W PALM BEACH   FAIR      44  40  85 NW10      30.20S WCI  39          
POMPANO BEACH  FAIR      46  39  76 NW17      30.19S WCI  39          
FT LAUDER-EXEC FAIR      46  41  82 NW10      30.19S WCI  41          
FT LAUDERDALE  FAIR      47  44  90 N12       30.18S WCI  42          
PEMBROKE PINES FAIR      47  41  80 N14       30.20S WCI  41          
OPA LOCKA      FAIR      48  42  80 N10       30.19S WCI  43          
MIAMI          FAIR      49  44  83 N9G17     30.18S WCI  45          
WEST KENDALL   FAIR      47  43  86 N10       30.18S WCI  42          
HOMESTEAD      FAIR      47  42  82 NW10      30.17S WCI  43          

STATION/POSITION


LAKE WORTH
FOWEY ROCKS
SETTLEMENT POINT

$$